Location: Brad
(46.1333°N, 22.7833°E)
Time: 15:31:25
(UTC+00:00)

CZ-4B R/B - Visible Passes

Search period start: 12 July 2024 00:00
Search period end: 22 July 2024 00:00
Orbit: 452 x 667 km, 98.4° (Epoch: 12 July)

Date Brightness Start Highest point End Pass type
(mag) Time Alt. Az. Time Alt. Az. Time Alt. Az.
12 Jul ? 21:51:34 12° E 21:53:53 17° ENE 21:56:47 10° NNE visible
12 Jul ? 23:27:29 53° SSW 23:28:16 63° WSW 23:32:43 10° NNW visible
13 Jul ? 21:50:21 12° E 21:52:38 17° ENE 21:55:26 10° NNE visible
13 Jul ? 23:26:16 55° SSW 23:27:01 65° WSW 23:31:27 10° NNW visible
14 Jul ? 21:49:08 12° E 21:51:23 16° ENE 21:54:04 10° NNE visible
14 Jul ? 23:25:03 58° SSW 23:25:44 68° WSW 23:30:10 10° NNW visible
15 Jul ? 21:47:53 11° E 21:50:06 15° ENE 21:52:40 10° NNE visible
15 Jul ? 23:23:48 60° SSW 23:24:26 71° WSW 23:28:52 10° NNW visible
16 Jul ? 21:46:38 11° E 21:48:49 15° ENE 21:51:15 10° NNE visible
16 Jul ? 23:22:33 63° SSW 23:23:09 73° WSW 23:27:32 10° NNW visible
17 Jul ? 21:45:22 10° E 21:47:31 14° ENE 21:49:48 10° NNE visible
17 Jul ? 23:21:17 65° SSW 23:21:50 76° WSW 23:26:12 10° NNW visible
18 Jul ? 21:44:06 10° E 21:46:12 13° ENE 21:48:19 10° NNE visible
18 Jul ? 23:20:00 68° SSW 23:20:30 79° WSW 23:24:51 10° NNW visible
19 Jul ? 21:42:54 10° E 21:44:53 13° ENE 21:46:48 10° NNE visible
19 Jul ? 23:18:43 71° S 23:19:09 82° WSW 23:23:28 10° NNW visible
20 Jul ? 21:41:45 10° E 21:43:31 12° ENE 21:45:15 10° NE visible
20 Jul ? 23:17:25 74° S 23:17:47 86° WSW 23:22:04 10° NNW visible
21 Jul ? 21:40:39 10° E 21:42:09 12° ENE 21:43:39 10° NE visible
21 Jul ? 23:16:06 77° S 23:16:24 89° W 23:20:39 10° NNW visible
